Location: Risskov
(56.1972°N, 10.2480°E)
Time: 13:13:44
(UTC+00:00)

ALOS 2 - Pass Details

Date: 05 July 2020
Orbit: 630 x 632 km, 97.9° (Epoch: 07 August)

Event Time Altitude Azimuth Distance (km) Brightness Sun altitude
Exits shadow 21:58:11 11° 143° (SE) 1,959 4.5 -9.1°
Maximum altitude 22:02:19 53° 68° (ENE) 780 3.1 -9.3°
Drops below altitude 10° 22:06:37 10° 352° (N) 2,029 6.8 -9.5°
Sets 22:08:51 0° 348° (NNW) 2,941 8.3 -9.6°
